Weather History for Falls City, NE

Change the Weather History Date:

Friday, March 29, 2013

  Actual Average Record
Temperature  
Mean Temperature 52 °F -  
Max Temperature 70 °F 58 °F 85 °F (1986)
Min Temperature 36 °F 36 °F 14 °F (1969)
Degree Days  
Heating Degree Days 12    
Growing Degree Days 2 (Base 50)    
Moisture  
Dew Point 33 °F    
Average Humidity 54    
Maximum Humidity 89    
Minimum Humidity 23    
Precipitation  
Precipitation 0.00 in - - ()
Sea Level Pressure  
Sea Level Pressure 30.15 in    
Wind  
Wind Speed 7 mph (ESE)    
Max Wind Speed 16 mph    
Max Gust Speed 22 mph    
Visibility 9 miles    
Events      
Averages and records for this station are not official NWS values.
T = Trace of Precipitation, MM = Missing Value Source: NWS Daily Summary

Daily Weather History Graph

Daily Weather History Graph

Search for Another Location

Airport:

Trip Planner

Search our weather history database for the weather conditions in past years. The results will help you decide how hot, cold, wet, or windy it might be!

Date:

Astronomy

Mar. 29, 2013 Rise Set
Actual Time 7:10 AM CDT 7:43 PM CDT
Civil Twilight 6:43 AM CDT 8:11 PM CDT
Nautical Twilight 6:11 AM CDT 8:43 PM CDT
Astronomical Twilight 5:38 AM CDT 9:16 PM CDT
Moon 10:45 PM CDT (3/29) 8:20 AM CDT (3/29)
Length of Visible Light 13h 27m
Length of Day
12h 33m
Waning Gibbous, 93% of the Moon is Illuminated
Mar 29
Waning Gibbous
Apr 2
Last Quarter
Apr 10
New
Apr 18
First Quarter
Apr 25
Full

Hourly Weather History & Observations

Time (CDT) Temp. Windchill Dew Point Humidity Pressure Visibility Wind Dir Wind Speed Gust Speed Precip Events Conditions
12:53 AM 46.9 °F - 36.0 °F 66% 30.19 in 10.0 mi ENE 4.6 mph - N/A   Mostly Cloudy
1:53 AM 44.1 °F 41.5 °F 35.1 °F 71% 30.19 in 10.0 mi East 4.6 mph - N/A   Clear
2:53 AM 43.0 °F 40.3 °F 35.1 °F 74% 30.18 in 10.0 mi East 4.6 mph - N/A   Clear
3:53 AM 41.0 °F 39.0 °F 35.1 °F 79% 30.18 in 10.0 mi ESE 3.5 mph - N/A   Clear
4:53 AM 39.0 °F 36.8 °F 34.0 °F 82% 30.18 in 10.0 mi East 3.5 mph - N/A   Clear
5:53 AM 37.0 °F 34.5 °F 34.0 °F 89% 30.18 in 8.0 mi ENE 3.5 mph - N/A   Clear
6:53 AM 36.0 °F 32.1 °F 33.1 °F 89% 30.20 in 6.0 mi East 4.6 mph - N/A   Clear
7:53 AM 36.0 °F 32.1 °F 33.1 °F 89% 30.22 in 5.0 mi ESE 4.6 mph - N/A   Clear
8:53 AM 41.0 °F 38.0 °F 36.0 °F 82% 30.24 in 7.0 mi East 4.6 mph - N/A   Clear
9:53 AM 48.0 °F - 37.0 °F 66% 30.24 in 10.0 mi East 6.9 mph - N/A   Clear
10:53 AM 55.9 °F - 37.9 °F 51% 30.22 in 10.0 mi ESE 11.5 mph - N/A   Clear
11:53 AM 62.1 °F - 36.0 °F 38% 30.21 in 10.0 mi SE 16.1 mph 20.7 mph N/A   Clear
1:53 PM 66.9 °F - 30.9 °F 26% 30.16 in 10.0 mi SE 12.7 mph 21.9 mph N/A   Clear
2:53 PM 69.1 °F - 30.9 °F 24% 30.12 in 10.0 mi ESE 15.0 mph - N/A   Clear
3:53 PM 69.1 °F - 30.0 °F 23% 30.11 in 10.0 mi SE 15.0 mph 19.6 mph N/A   Clear
4:53 PM 69.1 °F - 30.0 °F 23% 30.09 in 10.0 mi SE 11.5 mph - N/A   Clear
5:53 PM 68.0 °F - 28.9 °F 23% 30.09 in 10.0 mi SSE 10.4 mph - N/A   Clear
6:53 PM 64.9 °F - 30.9 °F 28% 30.10 in 10.0 mi SE 9.2 mph - N/A   Clear
7:53 PM 55.0 °F - 30.9 °F 40% 30.10 in 9.0 mi SE 8.1 mph - N/A   Clear
8:53 PM 53.1 °F - 30.9 °F 43% 30.10 in 10.0 mi SE 5.8 mph - N/A   Clear
9:53 PM 54.0 °F - 32.0 °F 43% 30.09 in 10.0 mi SE 9.2 mph - N/A   Clear
10:53 PM 50.0 °F - 32.0 °F 50% 30.09 in 10.0 mi SE 6.9 mph - N/A   Clear
11:53 PM 50.0 °F - 34.0 °F 54% 30.05 in 10.0 mi SE 8.1 mph - N/A   Clear